CAPE
0 0 0 1 0 1 1 1 1 2 3 1 1 0 0 0 0 0 0 0 0 0 0 0 0 0 6 4 35 2 17 36 7 22 3 9 23 58 13 0 46 64 23 3 1 7 27 0 0 0 0 0 0 0
0 0 0 0 0 1 2 2 1 0 0 0 0 0 0 0 0 0 0 0 0 0 0 0 0 0 0 0 0 0 1 34 14 12 2 2 28 25 15 21 12 4 0 0 0 5 0 0 0 0 0 0 0 0
0 0 0 0 0 1 2 2 1 0 0 0 0 0 1 1 0 0 0 0 0 0 0 0 0 0 0 0 0 0 0 0 0 0 60 20 22 1 6 1 19 0 0 0 0 0 0 0 0 0 0 0 0 0
0 0 0 0 0 1 0 0 0 0 0 0 0 0 0 0 0 0 0 0 0 0 0 0 0 0 0 0 0 0 0 0 0 0 0 0 0 0 0 0 0 0 0 0 0 1 0 0 0 0 0 0 2 3
0 0 0 0 0 0 0 0 0 0 0 0 0 0 0 0 0 0 0 0 0 0 0 0 0 0 0 0 0 0 0 0 0 0 0 0 0 0 0 0 0 0 0 0 14 0 0 0 0 0 0 3 1 0
0 0 0 0 0 0 0 0 0 0 0 0 0 0 0 0 0 0 1 0 0 0 0 0 0 0 0 0 0 0 0 0 0 0 0 23 4 0 1 0 7 0 0 0 0 0 0 0 8 2 0 3 10 0
0 0 0 0 0 0 0 0 0 0 0 0 0 0 0 0 0 0 0 0 0 0 0 0 10 0 0 0 0 1 0 1 0 10 17 34 1 0 0 58 35 0 0 0 0 0 0 9 14 4 7 15 8 6
0 0 0 0 0 0 0 0 0 0 0 0 0 0 0 0 0 0 0 0 0 0 0 3 24 4 1 0 30 26 29 4 0 5 25 26 36 0 8 124 10 0 0 0 0 0 0 20 10 6 9 1 9 7
0 0 0 0 0 0 0 0 0 0 0 0 0 0 0 0 10 0 0 0 0 0 5 4 21 37 10 21 54 17 78 47 42 33 34 34 19 29 132 39 14 0 0 0 0 0 15 10 5 4 5 6 6 1
0 0 0 0 0 0 0 0 0 0 0 0 0 0 13 0 0 0 1 24 14 8 0 21 23 24 0 9 0 5 12 24 64 79 115 50 84 154 169 71 24 0 0 0 0 36 35 32 0 10 7 7 0 0
1 0 0 0 0 0 0 0 0 0 0 0 0 0 0 0 0 4 8 18 31 17 31 30 9 29 1 1 0 0 0 1 34 21 17 27 41 149 124 73 33 27 3 12 22 46 28 51 8 8 6 7 1 0
0 0 0 0 0 0 0 0 0 0 0 0 0 0 0 12 23 5 25 23 6 30 10 0 0 9 1 10 8 1 1 0 0 21 0 0 22 122 50 57 61 54 32 18 24 36 65 53 19 10 10 8 6 6
0 0 0 0 0 0 0 0 0 0 0 0 0 9 29 15 10 23 35 30 13 60 1 6 6 0 5 5 0 0 7 17 23 0 6 37 59 25 42 103 91 65 48 24 29 28 40 56 55 42 42 29 8 16
0 0 0 0 0 0 0 0 0 0 0 1 9 0 0 13 14 7 24 47 58 57 93 122 52 17 16 3 3 19 6 27 14 21 24 35 17 9 88 116 101 93 79 42 21 9 87 136 105 97 38 48 16 4
0 0 0 0 0 0 0 0 0 0 0 3 8 0 9 14 28 35 42 62 41 42 42 89 112 60 41 43 24 11 21 15 23 20 4 20 9 30 99 106 46 36 22 26 21 19 40 91 96 113 98 85 39 7
0 0 0 0 0 0 0 0 0 0 6 1 1 0 24 20 31 35 39 63 23 17 50 6 73 38 129 122 90 62 57 49 28 42 142 99 117 133 91 57 31 33 26 25 41 84 109 98 115 143 141 98 45 39
0 2 0 0 0 0 0 0 5 4 11 8 4 25 36 45 42 15 7 63 59 53 63 56 24 32 79 84 65 90 63 77 78 16 96 103 103 157 197 114 75 40 97 132 77 92 112 50 136 180 248 115 55 34
0 10 0 0 0 0 0 0 5 8 7 9 21 7 22 15 30 24 15 54 26 36 54 21 26 27 35 69 99 2 1 50 57 67 95 254 312 300 165 95 105 251 202 157 138 87 102 60 60 28 19 27 26 36
0 0 0 0 0 0 6 7 5 1 12 22 16 19 23 33 44 43 40 51 80 57 68 68 15 70 90 136 56 32 75 65 61 87 99 230 177 292 273 207 319 256 208 200 139 91 25 3 0 0 12 35 45 2
0 0 0 0 0 0 2 3 4 1 4 3 14 11 12 23 35 45 36 37 47 12 34 111 79 58 9 66 13 42 242 293 204 144 155 303 295 202 96 265 298 237 209 90 76 0 1 6 1 0 0 0 0 0
0 0 0 0 0 0 10 9 3 0 4 6 15 17 15 20 24 25 35 72 53 18 12 8 50 112 277 311 222 318 331 322 204 392 59 34 166 181 332 440 313 186 146 57 7 6 2 9 43 42 5 0 0 0
14 0 0 4 8 3 2 3 3 7 5 7 11 5 13 15 16 26 35 49 71 39 2 138 194 182 215 288 358 214 300 222 199 220 79 44 159 130 158 92 151 65 92 2 7 24 14 35 45 24 46 8 3 1
0 0 5 2 3 1 0 3 5 3 3 7 16 11 5 12 15 47 32 84 62 161 149 182 184 288 186 193 201 178 35 26 32 116 148 167 213 98 30 21 24 8 0 0 0 21 54 79 56 22 7 9 18 12
0 6 3 3 1 0 0 6 4 4 3 4 7 5 5 25 19 17 20 129 166 185 323 360 232 18 16 21 24 21 39 58 116 15 0 4 10 3 0 0 1 4 11 6 15 18 22 32 3 12 16 19 8 3
1 0 0 0 1 2 1 3 3 6 4 28 16 11 17 30 3 6 10 107 172 123 200 338 84 4 0 1 1 2 14 19 54 0 0 0 5 7 5 8 12 21 22 39 23 8 22 32 9 26 23 1 0 0
1 1 0 3 1 1 2 2 5 12 10 18 7 15 20 14 2 1 84 66 88 17 79 127 23 8 0 0 0 1 26 20 6 0 0 0 10 21 24 35 33 50 32 47 59 60 81 76 41 11 27 0 0 0
0 1 2 11 4 6 1 4 2 2 4 1 4 3 5 2 4 91 90 80 42 20 7 62 34 8 0 0 0 0 3 4 0 0 1 16 23 55 91 4 0 0 0 2 7 32 44 43 37 7 1 0 0 0
4 0 0 2 3 1 4 1 0 0 3 3 5 7 4 11 45 39 66 12 58 29 44 49 32 22 3 2 0 1 5 4 1 13 32 61 69 6 19 1 0 0 0 0 0 0 0 0 0 0 0 0 0 0
4 4 6 4 7 1 3 3 13 17 6 9 11 14 34 28 21 20 11 18 20 8 11 26 55 28 6 10 10 2 0 4 29 24 35 7 4 14 23 8 2 0 0 0 0 0 0 0 0 0 0 0 0 0
1 8 6 1 4 7 6 2 7 9 10 27 39 4 4 7 28 9 2 14 7 3 14 16 20 10 15 8 8 15 20 12 4 25 1 0 4 11 7 3 0 0 0 0 0 0 0 0 0 0 0 0 0 0
12 13 8 3 3 13 9 18 6 5 10 38 68 14 19 36 12 6 15 14 13 6 14 20 17 31 3 0 0 5 45 41 26 22 6 10 10 7 9 0 0 0 0 0 0 0 0 0 0 0 0 0 0 0
11 5 1 5 8 2 11 1 22 67 122 101 69 24 35 20 40 34 11 8 5 14 12 7 2 7 5 17 6 0 0 23 13 1 1 0 4 0 0 0 0 0 0 0 0 0 0 0 0 0 0 0 0 0
5 2 10 14 23 8 26 27 86 125 105 93 124 128 62 14 19 19 27 25 26 23 30 5 2 6 14 14 0 0 0 0 0 0 0 0 0 0 0 0 0 0 0 0 0 0 0 0 0 0 0 0 0 1
CIN
0 0 0 0 0 0 0 0 -3 -3 -1 0 0 0 0 0 0 0 0 0 0 0 0 0 0 0 -80 -108 -40 -11 -88 -87 -23 -77 -59 -43 -9 -4 -7 -2 -5 -22 -13 -18 -3 -8 -45 0 0 0 0 0 0 0
0 0 0 0 0 0 0 0 0 -1 0 0 0 0 0 -1 0 0 0 0 0 0 0 0 0 0 0 0 0 0 -12 -89 -79 -83 -79 -40 -4 -4 -17 -14 -38 -2 0 -1 0 -76 0 0 0 0 0 0 0 0
0 0 0 0 0 0 0 0 0 0 0 0 0 0 0 0 0 0 0 0 0 0 0 0 0 0 0 0 0 0 0 0 0 0 -83 -44 -23 -59 -42 -1 -4 0 0 0 0 0 0 0 0 0 0 0 0 0
0 0 0 0 0 0 0 0 0 0 0 0 0 0 0 0 0 0 0 0 0 0 0 -1 0 0 0 0 0 0 0 0 0 0 0 0 0 0 0 -10 0 0 0 0 0 -3 0 0 0 0 0 0 -2 -1
0 0 0 0 0 0 0 0 0 0 0 0 0 0 0 0 0 0 0 0 0 0 0 0 0 0 0 0 0 0 0 0 0 0 0 0 0 0 0 0 0 0 -3 0 -7 -7 0 0 0 0 0 -2 -1 -2
0 0 0 0 0 0 0 0 0 0 0 0 0 0 0 0 0 0 -3 0 0 0 0 0 0 0 0 0 0 0 0 0 0 0 0 -3 -31 0 -2 0 -14 0 0 0 0 0 0 0 -4 -9 0 -3 -1 0
0 0 0 0 0 0 0 0 0 0 0 0 0 0 0 0 0 0 0 0 0 0 0 -2 -2 0 0 0 0 -1 0 -1 0 -3 -7 -2 -4 0 0 -11 -9 0 0 0 0 0 0 -4 -11 -6 -2 -1 -1 -1
0 0 0 -1 0 0 0 0 0 0 0 0 0 0 0 0 0 0 0 0 0 0 0 -1 -8 -14 -16 0 -2 -2 -2 -1 0 -13 -6 -2 -7 0 -4 -4 -18 0 0 0 0 0 -1 -2 -8 -3 -6 -5 -1 -2
0 0 0 0 0 0 0 0 0 0 0 0 0 0 0 0 -3 0 0 0 0 0 -11 -2 -3 -23 -54 -44 -22 -1 -8 -10 -13 -2 -3 -4 -1 -2 -6 -23 -16 0 0 0 0 0 -4 -9 -17 -11 -11 -6 -1 -1
0 0 0 0 0 0 0 0 0 0 0 0 0 0 -1 0 0 0 0 -16 -4 -1 0 -2 -11 -12 0 -44 -1 -23 -16 -5 -14 -13 -3 -9 -3 -21 -6 -4 -38 -2 0 0 0 -2 -3 -1 -2 -5 -4 -2 0 0
0 0 0 0 0 0 0 0 0 0 0 0 0 0 0 0 0 -13 -7 -4 -2 -3 -6 -2 -4 -6 -2 -6 0 0 -28 -3 -1 -4 -3 -1 -9 -7 -32 -43 -40 -31 -5 -6 -1 -6 -4 -2 -6 -10 -5 0 -1 0
0 0 0 0 0 0 0 0 0 0 0 0 0 0 0 -5 -1 -2 -3 -5 -5 -2 -1 -1 -9 -1 -12 -7 -9 -6 -2 0 -1 -13 0 0 -31 -23 -24 -17 -19 -9 -2 -1 -1 -1 0 -4 -11 -8 -4 -2 -1 0
0 0 0 0 0 0 0 0 0 0 0 0 0 -18 -3 -2 -12 -5 0 -2 -12 -2 -15 -1 -2 0 -10 -8 -2 -6 -1 -1 -11 0 -2 -5 -22 -13 -10 -1 -1 -1 -1 0 0 -1 -2 -1 -4 -5 -1 -4 -3 -1
0 0 0 0 0 0 0 0 0 0 0 -1 -1 0 -1 -8 -15 -14 -2 -2 -2 -2 -2 -7 -4 -2 -2 -7 -2 -1 -11 -10 -4 -1 -5 -10 -9 -17 -6 0 -1 -2 -1 0 0 -1 -2 -4 0 -1 -4 -7 -8 -3
0 0 0 0 0 0 0 0 0 0 0 -1 -1 0 -11 -9 -1 -5 -3 -5 -13 -13 -11 -3 -1 -2 -4 -4 -20 -17 -8 -2 -4 -8 -7 -29 -33 -22 -11 -2 -1 -3 -1 -1 -1 -1 -2 -8 -2 -5 -3 -1 -9 -3
0 0 0 0 0 0 0 0 0 0 -1 -1 0 0 -3 -5 -2 -11 -10 -3 -15 -41 -12 -32 -3 -16 -8 -3 -6 -10 -4 -5 -17 -16 -2 -14 -9 -2 -4 -7 -3 0 -3 -2 -7 -6 -3 -6 -1 -1 -5 -1 -4 -4
0 -2 0 0 0 0 0 0 -3 -2 -1 0 -9 -5 -3 -1 -1 -19 -41 -2 -4 -5 -2 -4 -8 -9 -2 -4 -2 -9 -1 -4 0 -5 -6 -19 -22 -3 -1 -1 -2 -3 -2 -3 -12 -1 -2 -11 -1 -2 0 -1 -5 -10
-15 -18 0 0 0 0 0 0 -1 -1 0 -2 -2 -5 -33 -15 -9 -2 -2 -2 -9 -2 -3 -5 -3 -10 -1 -3 -5 -47 -20 -2 -9 -5 -2 -3 -3 -1 0 -1 -14 -2 0 -1 -1 -1 0 -2 -1 -10 -19 -27 -24 -7
0 0 0 0 0 0 -1 -2 -1 -6 -3 -2 -5 -4 -5 -2 -1 -3 -2 -2 -1 -3 -2 -2 -7 -1 -4 -8 -22 -13 -2 -4 -4 -3 -12 -2 -8 -1 -2 -4 -3 0 0 0 0 -4 -2 -5 0 0 -18 -14 -10 -1
0 0 0 0 0 0 -2 -2 -3 0 -1 -5 -4 -10 -18 -9 -2 -2 -1 -1 -2 -12 -2 -2 -3 -8 -7 -5 -33 -5 -6 -7 -1 -17 -5 -5 -4 -17 -142 -5 -1 0 -1 0 -1 -3 -8 -4 -14 0 0 0 0 -1
0 0 0 0 0 0 -1 -2 -2 -8 -1 -3 -4 -4 -1 -4 -10 -21 -15 -4 -2 -22 -6 -24 -3 -5 -3 -9 -3 -4 -5 0 -2 0 -22 -38 -22 -23 -5 -4 -4 0 -1 -1 -20 -13 -37 -37 -25 -6 -10 0 0 0
-2 0 0 -5 -1 -2 -2 -5 -4 0 -1 -2 -2 -7 -9 -9 -5 -6 -11 -2 -3 -15 -32 -4 -3 -3 -3 -6 -1 0 -1 0 -2 -4 -12 -4 -2 -10 -8 -7 -2 -3 -1 -28 -14 -14 -28 -27 -33 -17 -14 -10 -3 -6
0 0 -1 -2 -1 -2 0 -2 -4 -11 -1 -3 -2 -2 -16 -5 -5 -2 -3 -2 -19 -3 -1 -6 -4 0 -3 -1 0 -2 -9 -6 -2 -2 -1 -1 -1 -3 -1 0 -1 -1 0 0 0 -41 -29 -19 -11 -3 -7 -9 -3 -7
0 -1 0 0 -4 0 0 -3 -2 -1 -2 -3 -7 -3 -6 -3 -8 -2 -2 -2 -6 -2 -6 -1 -3 -18 -16 -14 -3 -2 -17 -5 -3 -3 0 -1 -3 -1 -6 -4 -4 -31 -31 -48 -59 -56 -45 -16 -27 -14 -19 -6 -3 -2
-2 0 0 0 -1 -1 -1 -2 -3 -7 -1 -3 -1 -1 -1 -4 -6 -4 -3 -11 -3 -4 -2 -1 -13 -26 0 -1 0 0 0 -1 -1 0 0 0 -38 -32 -48 -69 -69 -84 -99 -54 -32 -30 -20 -5 -21 -1 -2 -10 0 0
0 0 0 0 -1 0 -2 -1 -3 -1 -1 -1 -2 -1 -1 -2 -4 -3 -8 -6 -5 -11 -3 -3 -15 -1 0 0 0 0 -1 -2 -10 0 0 0 -34 -16 -10 -11 -20 -10 -50 -44 -25 -17 -13 -8 -10 -2 -6 -1 0 0
0 0 -4 -1 -2 -3 -8 -3 -8 -6 -8 -4 -2 -8 -3 -2 -2 -6 -11 -1 -7 -12 -17 -7 -15 -9 0 0 0 0 -13 -15 -1 0 -20 -25 -49 -56 -32 -9 0 0 0 -4 -7 -3 -3 -1 -3 -3 -2 0 0 0
-1 -1 -1 -1 -3 -2 -2 -3 -6 0 0 -3 -3 -3 -2 -2 -2 -16 -12 -14 -10 -13 -7 -3 -4 -13 -38 -38 0 -44 -37 -44 -52 -38 -3 -10 -13 -42 -12 -1 0 0 0 0 0 0 0 0 0 0 0 0 0 0
0 -3 -2 -1 -1 -2 -2 -2 0 -1 -8 -7 -2 -1 -1 -7 -3 -1 -7 -14 -19 -9 -7 -5 -3 -3 -15 -43 -50 -60 -20 -19 -14 -6 -4 -6 -19 -3 -1 -3 -9 -1 0 0 0 0 0 0 0 0 0 0 0 0
-1 -2 0 -2 -1 -1 -3 -4 -5 -5 -10 -3 -4 -2 -5 -5 -2 -3 -5 -3 -7 -4 -4 -2 -2 -19 -15 -27 -19 -12 -5 -18 -36 -8 -25 -3 -10 -2 -5 -4 0 0 0 0 0 0 0 0 0 0 0 0 0 0
-2 -1 -1 -6 -4 -3 -5 -2 -5 -16 -9 -3 -3 -1 -1 -3 -11 -24 -10 -3 -2 -14 -3 -2 -1 -2 -26 -3 0 -17 -3 -6 -16 -9 -32 -17 -26 -17 -5 0 0 0 0 0 0 0 0 0 0 0 0 0 0 0
-1 -2 -4 -3 -3 -15 -13 -16 -4 -3 -1 -1 -1 -2 -3 -4 -1 -1 -8 -2 -10 -13 -13 -16 -3 -18 -17 -12 -32 -10 0 -5 -5 0 -1 0 -26 0 0 -1 0 0 0 0 0 0 0 0 0 0 0 0 0 -2
-4 -5 -2 -1 -1 -7 -2 -4 -4 -1 0 -1 -1 0 -12 -10 -4 0 -14 -7 -6 -5 -1 -19 -17 -30 -24 -2 0 0 0 0 0 0 0 0 0 0 0 0 0 0 0 0 0 0 0 0 0 0 0 0 0 -1
Wind_Speed
33 42 22 13 30 28 24 18 18 18 18 19 23 26 27 26 26 24 23 20 20 24 30 24 24 23 24 21 25 19 21 23 24 22 26 27 26 24 23 25 23 17 19 20 23 24 20 18 19 19 18 19 23 25
36 38 42 38 34 32 30 23 21 19 17 15 18 20 26 26 25 24 21 23 23 25 28 28 29 29 25 23 24 24 25 23 21 21 20 24 24 21 21 24 16 22 20 20 18 16 13 15 16 17 19 21 24 28
37 39 41 40 40 35 32 27 24 21 19 18 16 15 18 23 25 24 22 23 25 25 30 20 19 16 19 23 24 25 22 22 21 21 23 21 22 22 21 21 17 17 19 18 17 13 14 18 15 18 22 25 27 27
34 38 39 40 41 35 33 29 27 25 23 22 21 18 14 11 12 15 18 22 22 21 20 12 17 19 17 19 21 23 24 22 24 23 25 24 23 17 22 18 19 17 13 15 15 14 14 16 20 23 24 25 27 30
34 38 38 39 40 35 34 31 29 27 26 26 26 23 17 9 3 10 10 15 19 19 18 21 25 16 13 14 19 20 23 24 19 19 20 22 21 18 20 20 20 15 18 16 15 15 18 19 21 21 25 26 28 30
36 38 37 39 39 36 34 32 30 29 28 28 27 24 19 4 13 13 16 16 21 22 14 15 18 17 19 18 18 19 19 19 23 20 21 15 14 17 20 18 13 12 11 14 14 17 19 20 18 21 24 26 27 30
37 35 35 38 38 35 33 32 31 30 30 29 28 25 21 18 14 15 17 17 23 17 12 13 14 15 18 17 16 15 16 17 20 22 18 18 16 15 21 20 9 11 13 16 17 18 19 19 21 24 24 26 28 30
34 33 35 37 37 35 34 32 32 31 30 29 27 27 18 16 9 13 12 14 16 11 12 14 14 15 19 17 18 17 17 15 17 19 18 15 13 17 18 9 10 13 16 15 17 19 18 19 19 23 24 26 27 29
32 32 35 37 35 34 33 32 32 32 30 27 25 16 17 15 16 18 16 15 12 12 14 15 18 19 21 22 22 19 18 17 18 19 20 18 18 19 9 9 12 16 17 18 20 19 17 19 22 22 24 26 28 30
32 33 36 35 34 34 34 33 33 32 28 23 18 14 16 19 19 16 16 15 13 12 12 16 23 21 18 21 20 21 15 14 15 18 21 20 22 13 12 11 12 14 17 19 20 20 20 20 21 23 25 26 28 30
31 34 36 34 34 33 33 32 33 33 24 26 21 19 23 17 15 14 16 16 15 16 18 19 20 16 20 17 20 20 20 19 17 14 17 17 17 12 12 13 13 14 16 17 19 18 20 19 21 22 24 26 27 29
32 35 35 34 33 32 32 33 33 31 28 20 11 18 15 15 15 15 15 16 17 17 16 17 19 18 16 16 13 15 20 19 22 18 21 24 16 8 9 11 12 14 16 18 19 22 19 21 19 20 21 24 26 28
34 35 34 33 33 31 31 31 32 32 14 14 15 15 14 15 17 15 18 17 16 15 16 16 15 16 15 13 15 15 17 20 19 19 20 18 9 11 7 8 11 15 17 19 21 22 21 19 19 18 19 22 26 26
34 34 33 32 30 29 31 31 31 27 17 15 15 16 13 14 15 15 17 18 16 15 14 15 13 13 12 13 13 16 15 13 18 19 18 13 13 14 15 14 16 19 20 22 24 25 19 19 20 16 17 20 25 24
33 33 32 27 23 30 30 29 30 16 15 15 16 14 13 16 17 18 18 16 16 16 12 15 12 13 12 13 15 15 18 18 20 18 15 12 12 10 17 19 22 24 25 26 26 26 25 21 22 20 17 18 21 22
33 31 19 24 32 32 29 29 14 13 14 13 12 12 18 18 17 14 17 16 13 11 15 13 12 15 12 13 12 13 18 18 17 15 12 11 12 15 19 22 24 25 27 27 26 24 24 25 24 21 18 16 17 21
30 18 24 31 33 32 24 16 13 13 14 14 13 12 16 15 15 14 12 14 19 22 18 18 15 14 18 17 16 20 16 15 16 16 13 12 15 20 21 24 25 25 24 25 26 25 23 23 23 18 14 13 15 21
18 17 31 32 32 29 16 12 15 14 13 11 13 18 18 18 16 14 14 16 18 16 20 16 17 17 17 18 21 17 23 19 18 21 21 20 19 18 23 23 24 24 23 25 25 23 20 19 18 16 15 16 20 20
25 30 31 30 27 20 15 14 14 15 13 17 17 20 19 17 17 16 13 12 11 15 17 15 13 16 17 19 21 24 24 24 25 24 22 23 20 20 21 19 22 23 23 23 23 20 15 14 13 14 15 20 19 16
21 24 28 23 20 16 15 15 15 15 16 18 15 19 16 14 17 16 16 17 11 13 13 14 17 21 3 18 21 24 26 25 25 27 25 22 26 24 14 19 20 22 23 22 19 13 12 11 12 14 13 15 17 19
22 17 23 15 13 12 17 16 14 18 18 16 15 14 16 17 16 16 15 13 13 13 16 19 24 21 23 24 24 24 24 23 22 22 24 27 26 27 25 22 20 20 20 16 15 13 15 16 17 14 12 13 16 20
18 25 19 12 16 16 15 13 15 15 13 15 16 16 14 14 13 12 10 11 13 18 20 19 20 24 24 22 21 22 19 19 19 20 24 13 25 24 20 18 20 17 14 14 12 10 8 11 14 8 8 14 15 18
20 18 17 15 15 14 14 11 14 14 15 15 15 14 13 13 13 14 15 16 17 14 19 20 21 21 22 21 22 24 25 26 27 23 24 23 21 18 17 18 16 14 11 13 11 18 18 19 20 16 15 14 17 18
20 17 15 14 12 14 15 14 13 14 13 12 13 13 13 15 13 13 11 15 17 17 19 21 21 21 21 24 26 27 23 23 23 21 22 20 18 16 14 13 11 10 6 14 22 19 17 7 17 16 15 17 20 22
16 14 13 13 12 13 14 14 14 13 14 15 14 16 16 17 16 14 10 15 17 19 19 19 20 22 25 28 29 29 27 23 12 15 20 18 22 11 11 13 16 18 20 19 19 16 13 13 16 17 18 21 24 20
14 12 11 13 13 14 14 15 14 15 16 15 15 15 15 16 14 16 17 14 16 16 18 18 19 22 26 28 25 17 15 11 12 19 23 20 14 13 13 14 15 17 17 16 14 13 10 9 9 17 16 16 19 23
14 12 9 9 12 12 14 14 15 14 14 14 15 15 14 14 18 17 15 15 15 15 17 17 17 20 24 20 16 12 10 9 22 24 20 17 13 13 12 7 12 11 12 17 17 17 17 16 16 17 14 14 18 16
10 13 11 11 11 12 12 14 14 13 13 13 12 11 13 17 17 16 17 17 16 14 17 19 19 16 9 10 9 7 11 17 17 17 15 13 13 12 11 20 22 20 20 20 20 19 17 17 18 18 15 16 17 18
10 11 11 10 11 13 12 12 11 13 13 12 8 15 22 18 18 20 10 19 22 18 11 4 16 15 16 15 18 19 16 15 13 11 16 17 15 11 10 20 18 16 19 20 20 20 17 18 16 17 20 20 18 17
11 14 12 13 11 11 12 11 11 11 11 10 9 12 19 23 25 26 25 23 24 23 20 17 16 16 14 18 15 17 18 17 17 14 13 10 12 17 19 20 20 20 19 16 16 18 17 14 14 13 19 20 21 16
10 13 13 13 12 12 12 13 13 10 10 10 11 12 12 13 14 16 21 22 22 21 22 20 20 17 13 16 17 16 18 17 16 16 15 13 14 13 20 20 19 19 19 18 18 18 19 19 19 19 19 19 19 16
13 14 17 15 14 13 13 12 12 13 13 13 13 15 13 12 13 14 15 20 20 21 22 20 15 19 18 16 17 16 14 14 13 15 16 19 17 19 21 19 19 20 20 18 18 19 20 21 22 21 18 19 20 18
16 19 19 17 14 13 13 14 13 13 13 13 15 15 16 17 18 18 19 18 18 20 15 11 14 17 15 13 13 14 15 15 16 16 17 18 20 21 21 21 20 21 20 19 20 22 20 21 20 20 16 19 19 19
Wind_Direction
3 351 309 338 313 312 311 310 309 308 305 305 308 311 312 310 310 312 274 302 297 278 260 287 285 283 282 283 275 301 290 292 283 283 277 277 280 286 282 283 291 293 289 290 285 280 288 312 314 308 319 323 323 324
355 356 339 348 315 314 312 307 305 305 304 301 301 300 306 306 302 303 302 295 293 275 264 281 276 273 277 283 285 292 285 288 298 286 287 281 280 288 290 285 291 283 293 296 303 300 317 325 328 330 326 325 324 322
350 349 341 342 327 316 313 308 305 303 301 299 298 295 294 299 302 324 303 293 289 282 276 296 305 309 292 282 285 282 292 292 294 295 288 290 284 294 286 287 288 292 297 294 297 312 316 323 334 336 329 323 325 325
351 346 340 337 336 315 313 308 305 303 301 299 297 295 289 274 261 349 350 306 318 309 301 328 323 308 302 299 291 286 288 290 284 289 277 282 287 291 285 297 289 303 312 295 295 310 328 325 325 323 326 327 326 324
347 340 335 333 332 314 313 309 306 303 303 301 299 295 285 266 155 78 88 10 335 327 323 309 302 325 329 318 301 293 285 282 292 287 282 281 285 290 284 299 289 293 300 298 300 315 315 320 323 329 327 328 328 327
338 332 335 332 323 313 309 307 306 303 302 302 300 294 284 224 60 69 36 28 341 326 350 340 333 328 311 313 304 297 290 287 281 282 284 293 305 294 287 287 302 313 326 329 321 321 319 320 333 338 330 327 330 329
331 338 339 332 320 311 306 304 303 302 301 301 298 292 280 23 46 36 18 19 342 352 14 353 347 345 334 323 308 303 297 291 286 281 286 295 299 292 284 292 301 321 324 319 322 322 318 321 323 328 327 329 331 331
335 341 337 331 315 307 306 303 302 302 300 298 295 302 17 26 56 40 46 28 18 31 10 354 351 342 335 322 311 297 296 295 287 289 285 292 303 294 287 304 315 316 316 320 322 321 318 330 332 326 331 333 334 336
341 341 337 324 306 306 305 303 303 302 299 292 287 21 21 32 29 18 12 23 33 17 3 349 337 326 332 320 314 303 298 294 291 284 285 289 288 287 299 298 307 313 310 313 318 319 323 324 325 330 332 336 335 335
338 339 330 310 304 306 306 305 306 303 295 282 19 32 22 11 18 27 31 33 39 33 12 345 331 329 336 313 314 298 297 308 294 287 292 281 286 300 305 310 317 318 318 317 312 316 320 321 323 327 328 335 336 338
336 332 314 305 304 304 305 307 312 309 317 351 2 0 340 16 33 37 30 27 29 17 3 346 339 345 348 308 300 309 301 304 294 306 297 300 294 293 303 306 318 325 325 323 321 329 325 325 323 327 330 335 339 341
331 320 306 305 304 301 305 316 316 338 348 358 10 335 22 31 32 30 29 26 25 24 22 4 353 358 6 330 329 312 291 300 292 316 300 291 306 305 313 313 318 321 324 325 324 319 326 322 329 329 336 338 341 343
323 310 303 301 302 300 308 305 311 319 4 28 23 23 21 22 17 24 20 22 24 36 36 25 8 2 18 45 345 320 298 295 317 308 291 307 343 318 315 336 325 320 321 323 319 318 322 328 330 330 336 338 339 346
305 299 298 294 291 293 304 298 306 341 14 19 12 12 25 24 15 13 13 18 32 34 42 39 39 27 28 35 21 331 329 355 314 303 303 323 316 302 304 319 320 311 316 316 316 314 332 331 330 331 337 339 334 349
298 292 291 287 347 324 290 288 306 9 13 11 9 15 20 13 14 9 15 16 14 15 26 9 22 11 8 1 353 348 335 316 313 317 321 324 340 337 309 313 310 308 309 312 315 315 320 329 326 322 327 335 335 349
309 299 352 343 314 297 288 299 14 20 15 15 17 17 356 4 6 12 359 8 17 19 7 25 16 5 7 356 360 351 337 330 334 336 356 349 344 331 326 325 318 317 312 311 315 319 319 317 317 317 318 332 340 339
320 351 341 326 312 299 338 15 19 15 9 10 16 14 356 1 6 4 10 2 347 332 345 346 356 360 335 333 343 326 345 355 353 352 351 352 335 323 327 321 319 324 324 315 310 313 319 316 311 324 333 337 342 329
348 352 318 316 317 310 5 30 9 7 6 13 3 356 348 347 354 2 1 354 347 348 333 343 340 337 334 325 319 338 296 343 353 341 340 336 334 331 323 320 321 319 319 307 306 309 322 328 329 334 337 331 314 324
330 295 291 306 334 357 10 9 8 5 9 359 356 348 349 350 349 350 354 359 3 348 342 349 358 335 324 318 311 301 326 335 331 336 337 331 330 321 321 325 322 313 311 313 313 322 337 344 348 345 335 314 306 344
342 333 301 335 349 3 5 3 6 1 1 0 4 354 0 4 355 355 352 344 360 356 356 346 324 307 137 338 333 328 331 337 336 327 329 330 304 307 276 323 318 311 309 313 325 344 358 11 10 2 330 358 348 349
341 353 335 359 2 7 349 358 2 354 357 1 5 7 3 0 1 359 0 6 356 348 334 317 293 315 321 323 320 325 337 349 347 348 338 311 303 284 298 310 315 313 317 328 327 336 323 304 282 310 13 33 24 7
356 330 347 7 352 355 355 2 2 4 6 4 2 6 10 11 15 23 38 21 1 322 286 323 323 310 315 327 329 335 1 5 359 357 328 243 296 289 313 324 310 327 325 309 309 338 301 321 7 79 66 9 6 356
347 356 350 358 358 4 7 16 9 13 12 11 14 16 20 18 19 11 358 345 333 345 330 332 331 324 321 329 329 330 329 332 328 338 296 312 332 347 344 326 323 325 335 299 284 251 277 292 326 351 4 46 360 4
342 344 358 5 14 9 10 17 17 15 20 25 19 19 16 9 15 8 16 343 321 334 345 332 334 319 320 322 317 313 344 339 329 343 346 356 345 317 331 333 302 261 310 80 190 225 215 11 31 27 15 359 348 347
345 3 12 10 16 19 16 18 20 21 19 15 15 4 360 356 357 356 13 334 318 341 338 354 353 342 328 320 318 318 311 289 11 40 46 142 133 176 178 188 183 172 156 149 136 124 97 302 300 26 9 357 348 349
358 16 23 20 23 16 18 18 20 13 9 13 11 6 360 354 359 322 308 347 323 351 348 11 14 354 348 359 326 298 297 325 74 119 151 152 165 174 172 172 177 151 155 154 157 162 138 128 96 30 36 34 26 359
356 19 49 49 34 35 21 17 12 15 13 13 7 3 2 351 308 311 313 325 350 10 356 27 29 16 0 326 320 299 317 215 179 168 165 161 166 173 171 223 302 231 255 316 318 28 19 37 48 37 88 79 56 69
26 21 32 48 52 35 30 22 27 29 29 28 31 38 5 295 304 307 301 294 286 18 327 343 360 32 144 165 211 339 167 181 196 202 202 214 199 201 183 55 46 62 46 17 347 343 327 337 351 49 84 68 54 49
70 85 94 73 58 44 52 58 62 55 52 63 107 194 256 294 286 290 2 301 262 290 42 335 268 10 71 187 169 167 187 192 212 236 123 96 102 160 187 43 67 76 47 36 18 354 335 344 46 44 33 34 41 49
108 134 75 73 104 99 92 113 148 144 141 152 155 213 220 235 255 269 242 215 216 231 228 200 228 101 216 150 203 196 149 162 160 189 338 331 229 310 351 14 33 24 356 13 46 47 72 94 84 87 31 24 23 46
293 88 95 151 175 144 143 154 147 161 153 160 157 172 187 189 228 231 220 231 221 199 199 206 214 224 20 335 178 201 123 108 120 142 153 169 42 86 7 19 28 26 6 332 323 339 311 321 13 22 22 27 27 41
98 119 186 187 194 170 162 179 154 135 142 143 139 140 158 178 179 157 178 170 154 184 190 201 154 218 210 145 141 137 256 6 354 328 331 317 357 5 359 26 8 349 336 281 285 349 355 357 350 2 21 21 19 24
148 206 202 201 216 198 184 143 153 144 138 137 120 127 119 111 99 85 94 134 201 180 172 70 89 139 159 313 335 352 344 353 1 356 353 349 344 343 356 338 325 320 306 308 313 329 5 6 10 14 29 17 14 14